www.pogodaiklimat.ru

Погода и климат >> Архив погоды >> Пакистан >> Лахор аэропорт


ПОГОДА в Лахор аэропорту

  • Прогноз погоды в Лахор аэропорту
  • Монитор погоды в Лахор аэропорту

АРХИВ ПОГОДЫ в Лахор аэропорту

Время (UTC), дата Ветер
(напр.,м/с)
 
Видим.   Явления Облачность Т
(С)
Тd
(С)
f
(%)
Тe
(С)
Тes
(С)
Комфортность P
(гПа)
Po
(гПа)
Тmin
(С)
Tmax
(С)
R
(мм)
R24
(мм)
S
(см)
06 10.07 ЮВ 7 4000 м дым 6/3 1200 м
[Sc diur, vesp Ac As]
+32.5 +24.8 64 +46 +48 опасность
перегрева
994.6 970.9
09 10.07 Ю 5 4000 м дым 9/5 1200 м
[Sc diur, vesp Ac As]
+34.0 +25.7 62 +49 +51 опасность
перегрева
993.5 969.9
12 10.07 ЮВ 4 4000 м дым 9/5 1200 м
[Sc diur, vesp Ac As]
+35.5 +24.3 52 +47 +48 опасность
перегрева
991.7 968.3 +36.5
15 10.07 ЮВ 4 4000 м дым 8/3 1200 м
[Sc diur, vesp Ac As]
+32.0 +24.2 63 +44 +44 опасность
перегрева
992.5 968.8
18 10.07 ЮВ 4 4000 м дым 4/0
[Ac trans]
+31.5 +24.4 66 +44 +44 опасность
перегрева
993.1 969.3
21 10.07 ЮВ 3 4000 м дым 3/0
[Ac trans]
+30.0 +23.5 68 +41 +41 опасность
перегрева
991.9 968.0
00 11.07 В 6 4000 м дым 6/3 1200 м
[Sc diur, vesp Ac As]
+29.5 +23.8 71 +40 +40 очень
душно
991.7 967.8
03 11.07 ЮЗ 5 2000 м гроза, ливневой дождь 9/6 900 м
[Cb cap Ac As]
+24.0 +23.3 96 +32 +33 очень
душно
993.1 968.7 +22.0 24
06 11.07 Ю 3 4000 м дым {гроза} 9/5 1200 м
[Sc diur, vesp Ac As]
+29.5 +23.8 71 +40 +44 очень
душно
993.9 970.0 0.0
12 11.07 В 6 4000 м дым 8/4 1000 м
[Sc diur, vesp Ac As]
+34.0 +25.7 62 +49 +49 опасность
перегрева
993.2 969.6 +35.0
15 11.07 В 5 4000 м дым 8/4 1200 м
[Sc diur, vesp Ac As]
+32.0 +25.8 70 +47 +47 опасность
перегрева
993.8 970.0
18 11.07 В 3 4000 м дым 8/4 1200 м
[Sc diur, vesp Ac As]
+30.0 +25.8 78 +45 +45 опасность
перегрева
995.2 971.3
21 11.07 ЮВ 3 4000 м дым 6/3 1200 м
[Sc Ac As]
+28.5 +24.2 78 +40 +40 очень
душно
994.2 970.2
00 12.07 В 3 4000 м дым 8/4 1200 м
[Sc diur, vesp Ac As]
+28.0 +25.0 84 +40 +40 очень
душно
994.2 970.1
03 12.07 В 6 4000 м дым 8/4 1200 м
[Sc diur, vesp Ac As]
+27.5 +24.7 85 +39 +40 очень
душно
996.5 972.3 +23.8
06 12.07 ЮВ 8 4000 м дым 9/4 1200 м
[Sc diur, vesp Ac As]
+30.5 +23.3 65 +41 +42 опасность
перегрева
997.8 973.8
09 12.07 В 5 4000 м дым 8/4 1200 м
[Sc diur, vesp Ac As]
+34.0 +23.3 54 +45 +48 опасность
перегрева
996.0 972.3
12 12.07 В 4 4000 м дым 8/4 1200 м
[Sc diur, vesp Ac As]
+33.5 +22.7 53 +43 +44 опасность
перегрева
995.4 971.7 +34.5
15 12.07 В 4 2000 м дым 5/0 1000 м
[Ac As]
+32.0 +21.8 55 +41 +41 опасность
перегрева
996.0 972.2
18 12.07 ЮВ 4 4000 м дым 5/0
[Ac As]
+29.5 +20.5 58 +36 +36 очень
душно
998.2 974.1
21 12.07 ЮВ 4 4000 м дым 8/4 1200 м
[Sc diur, vesp Ac As]
+27.5 +20.8 67 +34 +34 очень
душно
996.0 971.8
00 13.07 СЗ 13 2000 м гроза, ливневой дождь 9/8 900 м
[Cb cap Ac As]
+26.0 +21.5 76 +33 +33 очень
душно
996.1 971.8 1
03 13.07 В 5 4000 м дым {гроза, дождь} 9/5 1200 м
[Sc diur, vesp Ac As]
+26.0 +21.5 76 +33 +34 очень
душно
994.4 970.2 +22.0 10
06 13.07 Ю 5 4000 м дым {гроза} 5/3 1200 м
[Sc Ac As]
+29.5 +21.4 62 +37 +44 очень
душно
999.1 975.0
21 13.07 ЮВ 5 4000 м дым 9/5 1200 м
[Sc diur, vesp Ac As]
+29.0 +23.2 71 +39 +39 очень
душно
995.7 971.7
00 14.07 В 7 4000 м зарница 10/6 <50 м
[Cb calv As trans]
+27.0 +24.1 84 +37 +37 очень
душно
994.6 970.4
03 14.07 Ю 5 2000 м гроза, ливневой дождь 10/6 900 м
[Cb calv As op]
+22.0 +22.0 100 +29 +29 очень
душно
996.5 971.9 +21.5 26
06 14.07 З 4 4000 м дым {гроза, дождь} 9/5 1200 м
[Sc Ac As]
+25.5 +22.6 84 +34 +36 очень
душно
997.9 973.5 6
09 14.07 Ю 6 4000 м дым 9/5 1200 м
[Sc Ac As]
+28.0 +22.1 70
12 14.07 ЮВ 5 4000 м дым 6/3 1200 м
[Sc diur, vesp Ac As]
+28.5 +22.7 71 +38 +39 очень
душно
995.7 971.6 +29.3
18 14.07 В 4 4000 м дым ясно +25.5 +21.5 79 +33 +33 очень
душно
997.8 973.4
21 14.07 ЮВ 4 4000 м дым 4/0
[Ac As]
+24.0 +20.2 79 +30 +30 очень
душно
994.9 970.5
00 15.07 В 5 4000 м дым 8/4 1200 м
[Sc diur, vesp Ac As]
+23.0 +19.9 83 +30 +30 очень
душно
994.2 969.7
03 15.07 С 6 2000 м гроза с градом 10/5 900 м
[Cb cap Ac As]
+25.0 +23.5 91 +34 +34 очень
душно
995.9 971.5 +21.5 20
06 15.07 СВ 6 4000 м дым {гроза, дождь} 6/3 1200 м
[Sc diur, vesp Ac As]
+27.0 +24.1 84 +37 +41 очень
душно
996.0 971.8 21
09 15.07 ЮВ 6 4000 м дым 9/5 1200 м
[Sc diur, vesp Ac As]
+29.0 +24.0 74 +40 +41 очень
душно
995.6 971.6
12 15.07 ЮВ 4 4000 м дым 9/5 1200 м
[Sc diur, vesp Ac As]
+30.0 +24.3 72 +42 +43 опасность
перегрева
994.6 970.7 +31.0
15 15.07 В 5 4000 м дым 9/5 1200 м
[Sc diur, vesp Ac As]
+27.5 +22.4 74 +36 +36 очень
душно
995.6 971.5
18 15.07 Ю 6 4000 м дым 9/5 1200 м
[Sc diur, vesp Ac As]
+27.5 +23.1 77 +37 +37 очень
душно
997.6 973.4
21 15.07 ЮВ 6 4000 м дым 9/5 1200 м
[Sc diur, vesp Ac As]
+27.0 +23.4 81 +37 +37 очень
душно
994.8 970.6
00 16.07 Ю 8 2000 м гроза, ливневой дождь 10/10 600 м
[Sc diur, vesp Ac cuf]
+24.5 +23.8 96 +33 +33 очень
душно
996.1 971.7 26
03 16.07 Ю 8 2000 м гроза, ливневой дождь 10/10 600 м
[Sc diur, vesp Ac cuf]
+24.5 +23.8 96 +33 +33 очень
душно
996.1 971.7 26
06 16.07 В 5 2000 м гроза, ливневой дождь 9/6 900 м
[Cb cap Ac As]
+24.5 +23.8 96 +33 +35 очень
душно
1000.6 976.1 12
09 16.07 ЮВ 5 4000 м дым {гроза, дождь} 9/5 1200 м
[Sc diur, vesp Ac As]
+27.0 +24.1 84 +37 +39 очень
душно
1000.4 976.1 8
12 16.07 ЮВ 6 2000 м гроза, ливневой дождь 10/6 900 м
[Cb calv As op]
+23.0 +23.0 100 +32 +32 очень
душно
1000.8 976.2 +27.5 67
15 16.07 СЗ 5 4000 м дым {гроза, дождь} 9/5 1200 м
[Sc diur, vesp Ac As]
+23.5 +22.0 91 +30 +30 очень
душно
1001.3 976.7 5
18 16.07 СВ 5 4000 м дым {гроза, дождь} 6/3 1200 м
[Sc diur, vesp Ac As]
+23.5 +22.0 91 +30 +30 очень
душно
1002.1 977.5
21 16.07 В 5 2000 м дымка 8/3 1200 м
[Sc Ac As]
+23.0 +21.5 91 +31 +31 очень
душно
1001.1 976.5
00 17.07 ЮВ 5 4000 м дымка 6/3 1200 м
[Sc diur, vesp Ac As]
+23.0 +21.5 91 +31 +31 очень
душно
1001.1 976.5

 

Местоположение метеостанции Лахор аэропорт (Пакистан): широта 31.52 долгота 74.40 высота над уровнем моря 216 м.

В архиве по умолчанию представлена погода в Лахор аэропорту за последнюю неделю. Архивные данные за месяц целиком и за предыдущие месяцы, начиная с января 2011 года, Вы можете получить, выбрав интересующий диапазон дат из раскрывающегося списка и нажав кнопку "Ввод!".


*Определитесь, кто Вы:
робот инопланетянин человек

Внимание! Время в таблицах - всемирное. Для получения местного времени необходимо прибавить поправку, которая равна 5 ч.

Смотрите также архив погоды в соседних городах и на ближайших метеорологических станциях:

Погода в Лахоре (Пакистан) (7 км)
Погода в Амритсаре (Пенджаб, Индия) (46 км)
Погода в Касуре (Пакистан) (47 км)
Погода в Гуджранвале (Пакистан) (76 км)
Погода в Наровале (Пакистан) (79 км)
Погода в Хафизабаде (Пакистан) (94 км)
Погода в Сиялкоте (Пакистан) (110 км)
Погода в Гуджрате (Пакистан) (116 км)
Погода в Сиалкот аэропорту (Пакистан) (118 км)
Погода в Окаре (Пакистан) (122 км)

Пояснения к столбцам:

Ветер - указаны скорость ветра в м/с - средняя за 10 мин, порывы в срок и между сроками (в фигурных скобках) и направление, откуда дует ветер: С - северный, СВ - северо-восточный, В - восточный, ЮВ - юго-восточный, Ю - южный, ЮЗ - юго-западный, З - западный, СЗ - северо-западный.
Видимость - горизонтальная дальность видимости в метрах или километрах. При видимости от 1 до 10 км при отсутствии осадков обычно наблюдается дымка, при ухудшении видимости до 1 км и менее - туман. В сухую погоду видимость может ухудшаться дымом, пылью или мглою.
Явления - указаны атмосферные явления, наблюдавшиеся в срок или в последний час перед сроком; фигурными скобками обозначены явления, наблюдавшиеся между сроками (за 1-3 часа до срока); квадратными скобками обозначены град или гололедные отложения с указанием их диаметра в мм.
Облачность - указаны через наклонную черту общая и нижняя облачность в баллах и высота нижней границы облаков в метрах; квадратными скобками обозначены формы облаков: Ci - перистые, Cs - перисто-слоистые, Cc - перисто-кучевые, Ac - высококучевые, As - высокослоистые, Sc - слоисто-кучевые, Ns - слоисто-дождевые, Cu - кучевые, Cb - кучево-дождевые. Подробнее классификацию облаков см. в Атласе облаков (PDF).
T - Температура воздуха - температура, измеренная на высоте 2 м над землей.
Td - Температура точки росы - температура, при понижении до которой содержащийся в воздухе водяной пар достигнет насыщения.
f - Относительная влажность воздуха - влажноcть воздуха, измеренная на высоте 2 м над землей.
Te - Эффективная температура - температура, которую ощущает одетый по сезону человек в тени. Характеристика душности погоды. При расчете учитывается влияние влажности воздуха и скорости ветра на теплоощущения человека.
Tes - Эффективная температура на солнце - температура, которую ощущает человек, с поправкой на солнечный нагрев. Характеристика знойности погоды. Зависит от высоты солнца над горизонтом, облачности и скорости ветра. Ночью, в пасмурную погоду, а также при ветре 12 м/с и более поправка равна нулю.
P - Атмосферное давление - приведенное к уровню моря атмосферное давление.
Po - Атмосферное давление - измеренное на уровне метеостанции атмосферное давление.
Tmin - Минимальная температура - минимум температуры воздуха на высоте 2 м над землей.
Tmax - Максимальная температура - максимум температуры воздуха на высоте 2 м над землей.
R - Количество осадков - Количество выпавших осадков за период времени, мм. При наведении курсора мыши на число - период времени, за который выпало указанное количество осадков.
R24 - Количество осадков - Количество выпавших осадков за 24 часа, мм.
S - Снежный покров - Высота снежного покрова, см. При наведении курсора мыши на число - состояние снежного покрова и степень покрытия местности в баллах.